| time (UTC) | temp F | wind direction | speed MPH | gust MPH | rain 1hr in | rain 24hr in | rain mn in | humidity % | barometer mb |
| 20260505204004 | 73 | 339 | 4.0 | 13.0 | 0.00 | 0.00 | 0.00 | 47 | 830.2 |
| 20260505201003 | 72 | 315 | 6.0 | 16.0 | 0.00 | 0.00 | 0.00 | 49 | 948.6 |
| 20260505195004 | 71 | 328 | 4.0 | 17.0 | 0.00 | 0.00 | 0.00 | 49 | 952.3 |
| 20260505194004 | 71 | 319 | 9.0 | 14.0 | 0.00 | 0.00 | 0.00 | 50 | 1013.5 |
| 20260505190004 | 70 | 319 | 7.0 | 14.0 | 0.00 | 0.00 | 0.00 | 50 | 1013.7 |
| 20260505183004 | 69 | 355 | 5.0 | 13.0 | 0.00 | 0.00 | 0.00 | 51 | 952.8 |
| 20260505181004 | 68 | 4 | 2.0 | 7.0 | 0.00 | 0.00 | 0.00 | 53 | 891.4 |
| 20260505175003 | 67 | 331 | 5.0 | 12.0 | 0.00 | 0.00 | 0.00 | 55 | 1013.9 |
| 20260505174003 | 67 | 5 | 2.0 | 10.0 | 0.00 | 0.00 | 0.00 | 55 | 888.8 |
| 20260505173004 | 66 | 293 | 5.0 | 12.0 | 0.00 | 0.00 | 0.00 | 57 | 1013.9 |
| 20260505172003 | 66 | 334 | 3.0 | 15.0 | 0.00 | 0.00 | 0.00 | 57 | 1014.0 |
| 20260505170004 | 65 | 302 | 2.0 | 10.0 | 0.00 | 0.00 | 0.00 | 59 | 1014.0 |
| 20260505165004 | 65 | 323 | 3.0 | 13.0 | 0.00 | 0.00 | 0.00 | 59 | 1014.1 |
| 20260505164004 | 64 | 321 | 4.0 | 13.0 | 0.00 | 0.00 | 0.00 | 60 | 1014.2 |
| 20260505163004 | 64 | 298 | 3.0 | 13.0 | 0.00 | 0.00 | 0.00 | 61 | 952.7 |
| 20260505162004 | 63 | 311 | 4.0 | 9.0 | 0.00 | 0.00 | 0.00 | 62 | 1014.1 |
| 20260505161003 | 62 | 300 | 1.0 | 9.0 | 0.00 | 0.00 | 0.00 | 62 | 1014.1 |
| 20260505153003 | 57 | 325 | 1.0 | 7.0 | 0.00 | 0.00 | 0.00 | 19 | 891.4 |
| 20260505151004 | 54 | 273 | 0.0 | 2.0 | 0.00 | 0.00 | 0.00 | 3 | 1014.3 |
| 20260505124004 | 49 | 269 | 0.0 | 0.0 | 0.00 | 0.00 | 0.00 | 9 | 1008.7 |
| 20260505121004 | 49 | 238 | 0.0 | 0.0 | 0.00 | 0.00 | 0.00 | 12 | 891.3 |
| 20260505114003 | 50 | 238 | 0.0 | 0.0 | 0.00 | 0.00 | 0.00 | 15 | 952.6 |
| 20260505113005 | 50 | 237 | 0.0 | 0.0 | 0.00 | 0.00 | 0.00 | 16 | 830.0 |
| 20260505101004 | 51 | 223 | 0.0 | 0.0 | 0.00 | 0.00 | 0.00 | 26 | 1013.8 |
| 20260505100004 | 51 | 223 | 0.0 | 0.0 | 0.00 | 0.00 | 0.00 | 27 | 891.7 |
| 20260505095004 | 51 | 223 | 0.0 | 0.0 | 0.00 | 0.00 | 0.00 | 29 | 830.5 |
| 20260505094004 | 51 | 223 | 0.0 | 0.0 | 0.00 | 0.00 | 0.00 | 31 | 1013.9 |
| 20260505093004 | 51 | 223 | 0.0 | 0.0 | 0.00 | 0.00 | 0.00 | 32 | 971.2 |
| 20260505092004 | 51 | 223 | 0.0 | 0.0 | 0.00 | 0.00 | 0.00 | 34 | 1014.1 |
| 20260505091004 | 51 | 223 | 0.0 | 0.0 | 0.00 | 0.00 | 0.00 | 36 | 1014.2 |
| 20260505090004 | 52 | 223 | 0.0 | 0.0 | 0.00 | 0.00 | 0.00 | 35 | 891.9 |
| 20260505085004 | 52 | 223 | 0.0 | 0.0 | 0.00 | 0.00 | 0.00 | 35 | 891.9 |
| 20260505083004 | 52 | 223 | 0.0 | 0.0 | 0.00 | 0.00 | 0.00 | 36 | 891.9 |
| 20260505082004 | 52 | 223 | 0.0 | 0.0 | 0.00 | 0.00 | 0.00 | 35 | 891.9 |
| 20260505081004 | 52 | 223 | 0.0 | 0.0 | 0.00 | 0.00 | 0.00 | 35 | 891.9 |
| 20260505080004 | 53 | 223 | 0.0 | 0.0 | 0.00 | 0.00 | 0.00 | 35 | 891.9 |
| 20260505075004 | 53 | 223 | 0.0 | 0.0 | 0.00 | 0.00 | 0.00 | 36 | 891.9 |
| 20260505074003 | 53 | 223 | 0.0 | 0.0 | 0.00 | 0.00 | 0.00 | 38 | 891.9 |
| 20260505073004 | 53 | 223 | 0.0 | 0.0 | 0.00 | 0.00 | 0.00 | 40 | 891.9 |
| 20260505072004 | 53 | 223 | 0.0 | 0.0 | 0.00 | 0.00 | 0.00 | 43 | 891.9 |
| 20260505071003 | 53 | 223 | 0.0 | 0.0 | 0.00 | 0.00 | 0.00 | 46 | 891.9 |
| 20260505070004 | 53 | 223 | 0.0 | 0.0 | 0.00 | 0.00 | 0.00 | 48 | 891.9 |
| 20260505065004 | 53 | 223 | 0.0 | 0.0 | 0.00 | 0.00 | 0.00 | 50 | 891.9 |
| 20260505064003 | 53 | 223 | 0.0 | 0.0 | 0.00 | 0.00 | 0.00 | 54 | 825.0 |
| 20260505063003 | 53 | 223 | 0.0 | 0.0 | 0.00 | 0.00 | 0.00 | 55 | 1014.1 |
| 20260505062004 | 53 | 223 | 0.0 | 0.0 | 0.00 | 0.00 | 0.00 | 56 | 1014.1 |
| 20260505061004 | 53 | 221 | 0.0 | 0.0 | 0.00 | 0.00 | 0.00 | 58 | 1014.1 |
| 20260505055003 | 54 | 221 | 0.0 | 0.0 | 0.00 | 0.00 | 0.00 | 60 | 1014.3 |
| 20260505054004 | 54 | 301 | 0.0 | 0.0 | 0.00 | 0.00 | 0.00 | 62 | 802.4 |
| 20260505053004 | 55 | 306 | 0.0 | 0.0 | 0.00 | 0.00 | 0.00 | 64 | 802.4 |
| 20260505052004 | 55 | 307 | 0.0 | 0.0 | 0.00 | 0.00 | 0.00 | 66 | 802.4 |
| 20260505051004 | 55 | 307 | 0.0 | 0.0 | 0.00 | 0.00 | 0.00 | 66 | 802.4 |
| 20260505041004 | 57 | 23 | 0.0 | 0.0 | 0.00 | 0.00 | 0.00 | 65 | 802.4 |
| 20260505040004 | 57 | 301 | 0.0 | 2.0 | 0.00 | 0.00 | 0.00 | 65 | 802.4 |
| 20260505035004 | 58 | 297 | 0.0 | 2.0 | 0.00 | 0.00 | 0.00 | 65 | 802.4 |
| 20260505034003 | 58 | 290 | 1.0 | 6.0 | 0.00 | 0.00 | 0.00 | 65 | 802.4 |
| 20260505032004 | 59 | 309 | 0.0 | 3.0 | 0.00 | 0.00 | 0.00 | 65 | 802.4 |
| 20260505031004 | 60 | 280 | 2.0 | 10.0 | 0.00 | 0.00 | 0.00 | 64 | 802.4 |
| 20260505030004 | 60 | 300 | 2.0 | 12.0 | 0.00 | 0.00 | 0.00 | 64 | 802.4 |